Clemson, SC

10:23 AM EDT on April 23, 2017 (GMT -0400)
Oconee County Regional

Weather History for KCEU - October, 2011

Change the Weather History Date:

Saturday, October 1, 2011

  Actual Average Record
Temperature  
Mean Temperature 60 °F -  
Max Temperature 69 °F 77 °F 91 °F (1933)
Min Temperature 50 °F 54 °F 38 °F (1946)
Degree Days  
Heating Degree Days 5    
Growing Degree Days 10 (Base 50)    
Moisture  
Dew Point 34 °F    
Average Humidity 41    
Maximum Humidity 59    
Minimum Humidity 23    
Precipitation  
Precipitation 0.00 in - - ()
Sea Level Pressure  
Sea Level Pressure 29.98 in    
Wind  
Wind Speed 8 mph (NW)    
Max Wind Speed 15 mph    
Max Gust Speed 22 mph    
Visibility 10 miles    
Events      
Averages and records for this station are not official NWS values.
T = Trace of Precipitation, MM = Missing Value Source: NWS Daily Summary

Daily Weather History Graph

Daily Weather History Graph

Search for Another Location

Airport or City:

Trip Planner

Search our weather history database for the weather conditions in past years. The results will help you decide how hot, cold, wet, or windy it might be!

Date:

Astronomy

Oct. 01, 2011 Rise Set
Actual Time 7:26 AM EDT 7:15 PM EDT
Civil Twilight 7:00 AM EDT 7:41 PM EDT
Nautical Twilight 6:31 AM EDT 8:10 PM EDT
Astronomical Twilight 6:02 AM EDT 8:39 PM EDT
Moon 12:16 PM EDT (10/1) 10:26 PM EDT (10/1)
Length of Visible Light 12h 40m
Length of Day
11h 49m
Waxing Crescent, 24% of the Moon is Illuminated
Oct 1
Waxing Crescent
Oct 3
First Quarter
Oct 11
Full
Oct 19
Last Quarter
Oct 26
New

Hourly Weather History & Observations

Time (EDT) Temp. Dew Point Humidity Pressure Visibility Wind Dir Wind Speed Gust Speed Precip Events Conditions
1:54 AM 57.9 °F 39.9 °F 51% 29.88 in 10.0 mi NW 8.1 mph - N/A   Clear
2:54 AM 57.9 °F 35.1 °F 42% 29.91 in 10.0 mi North 4.6 mph - N/A   Clear
3:54 AM 57.0 °F 35.1 °F 44% 29.90 in 10.0 mi NW 5.8 mph - N/A   Clear
5:54 AM 52.0 °F 37.0 °F 57% 29.91 in 10.0 mi WSW 6.9 mph - N/A   Clear
6:54 AM 52.0 °F 37.0 °F 57% 29.93 in 10.0 mi WNW 6.9 mph - N/A   Clear
7:54 AM 52.0 °F 36.0 °F 54% 29.95 in 10.0 mi WNW 6.9 mph - N/A   Clear
8:54 AM 55.9 °F 36.0 °F 47% 29.95 in 10.0 mi West 8.1 mph - N/A   Clear
9:54 AM 60.1 °F 33.1 °F 36% 29.96 in 10.0 mi NW 15.0 mph 21.9 mph N/A   Clear
11:54 AM 62.1 °F 30.9 °F 31% 29.98 in 10.0 mi WNW 8.1 mph 18.4 mph N/A   Clear
12:54 PM 64.0 °F 30.0 °F 28% 29.98 in 10.0 mi Variable 5.8 mph 16.1 mph N/A   Clear
1:54 PM 66.9 °F 28.0 °F 23% 29.96 in 10.0 mi NNW 6.9 mph - N/A   Clear
2:54 PM 66.9 °F 28.9 °F 24% 29.96 in 10.0 mi Variable 6.9 mph - N/A   Clear
3:54 PM 68.0 °F 30.0 °F 24% 29.96 in 10.0 mi NW 12.7 mph 17.3 mph N/A   Partly Cloudy
4:54 PM 66.9 °F 32.0 °F 27% 29.98 in 10.0 mi ENE 6.9 mph 16.1 mph N/A   Scattered Clouds
5:54 PM 66.0 °F 35.1 °F 32% 30.00 in 10.0 mi NNW 6.9 mph - N/A   Unknown
6:54 PM 61.0 °F 35.1 °F 38% 30.02 in 10.0 mi NW 12.7 mph 17.3 mph N/A   Clear
8:54 PM 55.0 °F 36.0 °F 49% 30.06 in 10.0 mi NW 10.4 mph 17.3 mph N/A   Clear
9:54 PM 54.0 °F 35.1 °F 49% 30.07 in 10.0 mi NW 13.8 mph - N/A   Clear
10:54 PM 52.0 °F 36.0 °F 54% 30.08 in 10.0 mi WNW 5.8 mph - N/A   Clear
11:54 PM 50.0 °F 36.0 °F 59% 30.07 in 10.0 mi SW 4.6 mph - N/A   Clear